Location: Newark
(22.3060°N, 114.2134°E)
Time: 10:46:51
(UTC+00:00)

SR - Visible Passes

Search period start: 03 August 2021 00:00
Search period end: 13 August 2021 00:00
Orbit: 577 x 877 km, 66.7° (Epoch: 02 August)

Date Brightness Start Highest point End Pass type
(mag) Time Alt. Az. Time Alt. Az. Time Alt. Az.
03 Aug ? 20:16:41 10° S 20:21:56 37° ESE 20:27:12 10° NE visible
04 Aug ? 19:29:08 11° SE 19:32:20 16° ESE 19:35:50 10° ENE visible
04 Aug ? 21:08:35 11° SW 21:14:02 49° WNW 21:19:35 10° N visible
05 Aug ? 20:20:57 28° SSW 20:24:14 77° ESE 20:29:59 10° NNE visible
06 Aug ? 19:33:15 31° SE 19:34:33 34° ESE 19:39:41 10° NE visible
06 Aug ? 21:12:42 13° WSW 21:16:33 25° WNW 21:21:08 10° N visible
07 Aug ? 18:45:27 15° E 18:45:27 15° E 18:48:05 10° ENE visible
07 Aug ? 20:24:54 40° WSW 20:26:37 53° WNW 20:32:11 10° N visible
08 Aug ? 19:37:02 70° E 19:37:02 70° E 19:42:32 10° NNE visible
08 Aug ? 21:17:02 10° W 21:19:11 12° WNW 21:21:19 10° NW visible
09 Aug ? 18:49:05 25° ENE 18:49:05 25° ENE 18:52:09 10° NE visible
09 Aug ? 20:28:32 26° WNW 20:29:06 26° WNW 20:33:49 10° N visible
10 Aug ? 19:40:31 46° NNW 19:40:31 46° NNW 19:44:48 10° NNE visible
11 Aug ? 18:52:27 28° NE 18:52:27 28° NE 18:55:04 10° NNE visible
11 Aug ? 20:31:52 13° WNW 20:31:52 13° WNW 20:34:18 10° NNW visible
12 Aug ? 18:04:19 11° NE 18:04:19 11° NE 18:04:36 10° NE visible
12 Aug ? 19:43:44 23° NNW 19:43:44 23° NNW 19:46:30 10° N visible
